ORBCOMM FM06 1 25118U 97084G 26127.78899632 .00001263 00000+0 37977-3 0 9992 2 25118 45.0139 247.1754 0001130 190.0868 342.4227 14.47465309488533 ORBCOMM FM04 1 25159U 98007C 26127.84307398 .00000896 00000+0 35300-3 0 9992 2 25159 107.9621 86.3941 0039755 35.0180 325.3564 14.35660852470804 ORBCOMM FM19 1 25415U 98046C 26128.18872272 .00000880 00000+0 32559-3 0 9992 2 25415 44.9940 73.6740 0001889 79.0501 54.8027 14.39417790451016 ORBCOMM FM20 1 25416U 98046D 26128.20556350 .00000606 00000+0 24517-3 0 9993 2 25416 44.9938 81.0784 0001297 317.3761 42.6986 14.38006593451039 ORBCOMM FM27 1 25481U 98053G 26128.13189514 .00000622 00000+0 24514-3 0 9994 2 25481 45.0037 165.5904 0001950 267.0164 93.0462 14.39063645444469 ORBCOMM FM32 1 25982U 99065C 26128.04000435 .00000617 00000+0 25341-3 0 9991 2 25982 45.0172 3.2628 0005237 219.0784 140.9686 14.37075745381319 ORBCOMM FM109 1 40086U 14040A 26127.62151965 .00000394 00000+0 11958-3 0 9992 2 40086 47.0036 283.2716 0001040 20.7040 339.3888 14.58802853628425 ORBCOMM FM114 1 41179U 15081A 26128.18696720 .00000283 00000+0 96184-4 0 9999 2 41179 47.0038 191.1138 0002018 348.0358 12.0480 14.58814091551919 ORBCOMM FM110 1 41182U 15081D 26128.17569829 .00000426 00000+0 12651-3 0 9996 2 41182 47.0009 190.6192 0004012 253.8044 106.2400 14.58817837551780 ORBCOMM FM118 1 41183U 15081E 26128.21025744 .00000437 00000+0 12868-3 0 9997 2 41183 47.0034 190.7824 0003818 223.6922 136.3662 14.58839619551893 ORBCOMM FM112 1 41184U 15081F 26127.94079875 .00000619 00000+0 16807-3 0 9990 2 41184 46.9979 100.5442 0002002 22.2024 337.8948 14.58564611553079 ORBCOMM FM113 1 41185U 15081G 26127.30048283 .00000373 00000+0 11523-3 0 9997 2 41185 46.9996 103.9359 0001697 346.5426 13.5415 14.58812827552969 ORBCOMM FM108 1 41187U 15081J 26128.08493545 .00000633 00000+0 17040-3 0 9999 2 41187 47.0065 11.7902 0002587 3.0951 356.9951 14.58813641554222 ORBCOMM FM117 1 41188U 15081K 26128.05037532 .00000611 00000+0 16570-3 0 9990 2 41188 47.0030 10.5997 0002980 10.8754 349.2195 14.58811714554268 ORBCOMM FM116 1 41189U 15081L 26127.62018878 .00000271 00000+0 93562-4 0 9994 2 41189 47.0013 102.4214 0002422 258.4892 101.5722 14.58821417553015